Theta_e
309 309 309 309 309 309 309 309 309 309 309 310 311 313 313 313 315 315 316 317 317 315 314 318 316 317 319 322 320 321 321 323 324 322 322 316 317 315 313 314 315 314 315 311 311
310 310 310 310 310 310 310 309 308 308 308 308 309 312 313 313 314 319 317 315 315 314 316 317 319 319 320 322 321 321 326 325 321 319 319 318 316 316 314 314 314 314 311 310 310
310 310 310 311 311 311 310 310 309 308 308 308 308 311 312 313 321 319 318 316 314 314 315 316 317 320 321 322 322 321 322 321 319 319 317 317 316 316 316 315 314 313 312 307 308
311 310 310 310 310 310 310 310 309 308 308 307 307 310 312 317 320 317 315 313 313 314 315 316 318 320 320 323 321 320 320 320 320 317 316 316 317 316 314 314 316 315 314 307 307
312 311 311 310 310 310 310 309 309 308 307 307 307 310 314 319 318 315 313 312 313 313 315 317 318 320 322 321 320 319 319 319 318 317 315 315 315 315 314 314 313 313 312 309 308
314 313 312 311 310 310 310 309 308 307 307 307 307 311 316 316 314 314 313 312 314 314 314 315 316 317 318 319 318 318 317 317 317 316 316 315 315 315 314 313 314 314 310 309 309
314 313 313 312 311 310 310 310 309 307 306 306 308 312 318 316 314 313 312 312 312 313 315 315 315 317 319 320 315 316 315 316 316 316 316 316 315 315 313 314 313 313 312 310 309
314 313 311 310 309 309 309 310 309 307 306 307 311 316 317 315 313 312 311 311 311 311 312 313 312 316 317 316 316 316 317 318 318 317 314 314 315 316 314 313 313 311 310 311 310
314 312 311 310 309 308 307 309 308 306 306 310 313 318 317 313 314 313 312 313 311 311 311 311 314 316 316 316 316 316 318 318 319 317 315 314 316 315 315 315 313 311 310 311 311
314 313 310 311 310 310 306 305 306 308 314 314 316 316 314 316 314 312 311 312 313 313 313 314 315 316 315 315 317 317 317 317 316 316 315 314 314 314 313 313 312 312 312 312 311
315 314 313 312 312 311 307 306 314 320 314 316 317 316 315 313 312 311 310 311 313 314 315 315 314 315 315 316 316 316 316 316 316 316 315 315 315 314 313 313 313 313 313 313 310
316 314 313 312 312 310 312 313 313 311 311 311 312 314 313 314 315 314 310 311 313 314 314 315 316 315 315 314 315 315 314 315 315 315 314 314 315 314 313 314 314 313 313 313 310
316 315 314 313 312 315 313 312 309 311 313 310 311 311 311 312 313 314 309 312 313 314 314 314 315 315 315 315 315 315 314 314 314 314 313 313 314 313 313 313 313 312 312 310 309
317 316 314 314 314 314 313 309 308 310 312 312 312 312 311 311 309 308 310 312 313 314 313 314 314 315 314 314 313 314 314 315 315 315 316 314 317 313 313 312 311 311 311 309 307
319 317 315 313 312 314 312 308 309 310 316 314 309 309 310 310 308 307 304 307 311 312 313 313 313 313 314 314 313 314 312 314 315 316 315 315 314 313 312 312 311 310 311 310 309
320 319 316 314 314 314 312 308 311 312 313 312 311 311 312 311 309 306 307 306 307 310 310 311 309 311 313 310 311 310 312 312 312 312 314 312 313 312 312 312 312 310 309 308 308
322 320 317 315 316 313 309 312 313 311 313 315 313 312 312 313 312 308 308 307 309 310 311 312 310 310 310 312 309 310 314 315 316 316 316 312 312 314 314 310 310 309 308 307 307
323 323 319 316 314 313 309 315 315 320 314 313 312 313 313 312 313 311 312 310 308 310 312 313 313 311 308 311 314 310 313 317 316 314 313 311 313 313 312 311 310 309 308 308 306
320 318 317 317 314 311 312 315 323 323 321 319 317 314 314 312 313 313 311 312 312 309 311 312 312 307 308 310 311 312 312 313 314 307 313 313 312 312 312 311 309 308 308 307 306
317 317 316 317 314 310 311 316 319 323 322 319 321 315 314 313 312 312 312 312 312 311 310 312 312 310 305 305 307 309 308 313 314 311 311 311 311 313 313 313 310 310 308 307 305
316 319 316 316 311 311 311 312 317 318 319 321 323 320 314 312 312 313 312 312 312 313 311 311 312 310 305 306 309 306 308 309 310 315 312 312 313 311 310 311 310 309 310 309 307
316 318 311 311 313 311 313 313 314 316 318 316 313 314 314 314 312 314 314 314 310 311 312 311 314 314 311 309 307 308 309 310 311 311 309 312 313 310 311 308 307 308 309 308 307
315 316 309 312 319 315 312 314 314 316 316 318 320 318 318 318 319 316 314 311 311 311 310 311 312 316 313 312 306 306 308 309 310 310 312 313 312 310 311 309 308 308 308 307 306
311 315 310 309 312 316 315 315 315 314 315 316 317 317 317 316 315 316 316 314 313 312 312 312 313 315 316 314 312 311 308 307 309 311 311 311 310 310 310 310 310 310 309 306 305
307 311 310 312 311 314 315 314 316 316 315 316 317 317 318 318 317 317 314 313 312 312 312 314 313 312 313 313 312 312 311 310 310 310 310 310 310 310 310 309 310 310 308 307 306
304 308 305 309 310 313 312 313 314 315 315 316 317 316 316 317 317 318 316 316 316 312 313 313 315 312 313 311 311 311 310 310 311 311 311 311 311 310 309 309 309 309 309 308 308
300 300 301 302 305 308 310 310 311 311 312 312 314 315 316 316 315 314 315 315 315 316 314 310 312 313 316 313 312 314 313 313 313 312 312 312 312 311 310 310 310 310 310 310 309
Wind_Speed
12 13 13 13 14 14 14 15 15 16 16 16 15 11 9 10 10 6 7 6 7 5 3 4 4 6 6 4 3 2 2 5 7 1 1 5 4 6 2 2 3 7 2 4 27
13 15 14 14 14 15 15 15 14 15 16 17 17 14 10 8 10 14 12 9 8 4 3 6 6 7 4 3 3 3 3 5 3 6 4 2 7 5 3 6 6 5 7 13 25
14 14 15 15 15 16 16 16 16 15 15 16 17 14 9 7 5 1 13 14 9 5 2 3 7 5 7 4 5 5 5 4 3 3 5 5 6 6 6 8 10 12 12 16 19
15 16 16 16 16 16 16 16 17 17 16 16 16 12 6 2 4 1 7 11 8 6 3 2 4 3 5 6 8 4 10 11 3 2 1 4 3 6 10 14 1 2 2 15 18
17 18 18 17 18 18 18 18 18 17 16 17 16 11 3 4 5 3 7 9 7 6 5 5 7 7 7 5 1 8 9 9 7 5 5 8 10 7 13 11 13 11 5 12 14
20 21 21 20 19 20 20 20 20 20 20 17 15 7 3 7 4 4 8 8 5 7 6 6 4 5 5 6 6 6 8 11 8 9 7 7 7 5 10 14 15 11 11 12 14
22 24 24 23 21 21 21 21 21 22 21 20 11 4 5 11 6 6 9 9 10 6 6 6 4 3 6 7 7 4 8 10 12 10 6 4 10 14 21 7 9 10 11 12 15
21 25 23 24 23 23 23 22 21 22 23 16 4 4 7 7 6 8 8 5 6 5 5 3 3 3 2 4 5 4 5 5 5 10 7 10 12 9 16 12 16 11 10 10 12
20 25 20 21 22 24 27 23 22 22 16 6 4 4 6 3 4 9 9 5 7 3 2 2 1 3 5 3 6 9 6 9 10 11 8 9 8 10 0 1 8 10 11 12 12
18 23 22 21 21 24 25 22 19 9 2 2 3 1 5 3 5 5 9 10 3 6 4 4 4 4 4 6 7 7 6 11 13 7 7 8 17 13 11 8 13 16 15 15 14
18 19 23 21 22 24 23 7 4 3 6 8 7 4 6 4 6 6 6 8 4 4 7 7 5 11 15 17 16 15 16 17 23 11 10 15 19 16 11 14 14 17 19 16 13
17 17 19 22 22 17 8 5 5 4 9 12 14 9 3 8 4 8 14 8 7 9 7 4 13 20 9 12 7 10 14 21 20 12 8 10 13 12 10 16 21 18 20 20 7
16 15 16 21 21 5 7 2 5 5 6 6 11 7 4 10 8 10 16 6 7 8 13 19 10 13 7 8 10 13 11 16 17 9 6 5 8 12 9 17 16 17 21 12 10
17 14 13 20 6 12 2 8 4 2 4 7 7 3 4 4 5 4 8 4 7 13 13 16 18 20 15 18 11 22 9 10 12 7 6 4 14 8 6 12 11 14 18 11 11
19 15 13 9 11 6 5 10 3 1 7 2 3 3 5 3 2 3 3 1 10 6 5 7 4 6 9 11 9 6 2 2 4 5 6 5 9 6 9 9 11 12 15 12 9
22 17 14 8 4 8 10 4 2 3 9 3 5 4 4 4 1 2 2 3 2 3 8 15 4 3 4 3 2 3 2 3 3 2 10 11 12 3 6 8 6 9 14 12 8
25 22 21 11 2 2 2 1 3 8 3 6 6 6 5 6 7 7 6 6 6 3 7 6 17 2 3 4 2 3 3 4 4 1 16 10 10 17 5 8 11 12 13 10 10
24 26 30 27 16 8 5 2 10 8 18 3 4 8 7 9 7 8 5 5 14 6 3 3 10 14 8 12 7 9 8 6 7 12 21 5 9 9 10 11 10 14 12 9 9
18 24 16 29 23 13 4 4 12 7 7 11 14 6 7 8 7 9 10 9 8 19 11 8 11 4 6 2 8 6 6 3 2 3 4 12 14 10 9 10 10 10 8 8 8
3 6 8 23 32 16 3 11 16 7 11 9 22 8 17 13 11 10 9 6 6 13 12 5 10 7 4 3 3 3 1 2 2 2 8 19 15 16 14 19 7 5 7 7 9
2 3 4 25 25 2 5 11 14 12 15 14 21 19 20 16 16 13 13 12 5 6 18 3 5 7 7 8 10 2 4 5 1 5 5 11 14 4 9 6 9 8 5 7 9
3 4 19 36 4 3 9 8 11 20 13 4 2 10 16 16 16 25 25 21 19 2 10 9 3 6 16 8 2 5 11 12 10 15 5 11 24 8 6 8 9 7 7 8 9
3 2 19 13 7 8 5 17 14 16 17 5 11 12 15 17 9 11 14 12 8 5 4 9 3 2 8 14 1 5 5 12 11 11 19 18 22 13 23 17 9 9 9 8 10
3 4 3 4 4 9 12 11 15 15 21 20 17 11 12 14 17 10 13 14 13 7 15 8 5 8 14 17 15 11 12 12 14 11 20 21 25 32 29 26 26 21 17 10 10
3 5 6 3 7 15 13 7 18 16 20 15 8 25 21 15 19 20 20 29 18 16 5 5 11 18 24 24 25 22 23 23 23 18 20 25 28 27 31 24 26 24 18 14 11
3 3 5 4 6 12 15 19 28 27 23 21 25 23 19 24 26 28 17 18 19 2 11 10 9 13 23 30 31 29 28 26 31 30 32 36 32 36 30 28 33 29 28 19 17
5 3 1 8 10 9 14 14 7 12 15 22 27 26 25 26 23 28 26 26 19 13 10 8 8 9 22 23 27 24 32 37 34 32 30 29 38 38 34 32 34 33 24 24 17
Wind_Direction
360 360 2 5 8 9 10 11 10 9 5 2 358 342 320 282 292 287 248 243 209 226 175 165 189 214 227 231 221 235 270 264 274 35 327 114 216 157 121 246 208 182 1 103 150
349 350 351 351 354 357 358 359 1 360 357 355 354 346 331 307 287 262 245 246 234 226 151 201 203 180 238 211 201 228 238 264 36 338 292 168 199 223 186 223 238 199 126 132 152
337 339 340 340 341 344 346 348 349 351 351 349 349 345 333 321 278 231 210 224 212 208 207 278 293 209 232 228 201 226 232 301 298 313 342 277 276 209 239 251 226 213 201 168 169
329 329 329 332 333 332 334 337 339 341 342 341 341 339 326 342 275 327 200 198 195 187 183 225 243 215 223 220 221 270 242 250 291 120 256 238 259 264 223 231 263 22 354 166 180
331 329 325 322 322 325 326 327 329 331 333 333 332 329 316 226 252 271 184 192 178 170 208 234 247 243 259 295 128 234 261 282 260 194 232 281 260 248 256 248 238 241 174 175 192
331 328 325 322 318 318 320 322 324 324 324 328 323 308 248 245 234 236 202 188 174 192 201 223 268 354 296 260 262 4 308 291 277 229 216 225 263 231 241 233 243 245 205 202 199
326 326 325 321 319 314 312 313 318 317 317 319 312 247 259 247 229 223 194 188 201 203 241 219 308 248 344 269 354 284 303 276 249 222 232 173 278 231 246 255 238 242 234 212 213
321 318 322 322 319 317 310 307 310 309 308 309 279 160 257 208 222 198 195 184 199 219 223 207 191 259 227 353 257 233 239 281 268 202 159 136 260 232 247 220 236 225 245 238 223
320 326 322 326 327 322 315 307 306 302 296 281 170 210 257 169 200 194 183 184 156 137 156 136 192 242 124 215 283 226 250 236 272 179 133 179 256 265 342 1 267 232 233 238 238
314 329 329 337 340 335 318 313 301 288 254 184 261 256 176 192 162 182 194 166 170 144 159 196 208 222 195 197 230 252 246 282 277 199 197 205 250 262 280 255 257 266 259 250 245
309 327 343 344 342 340 337 350 269 218 217 213 184 233 148 131 161 187 176 166 187 221 199 192 182 218 216 216 234 255 264 262 271 264 188 230 246 251 247 272 262 263 267 261 255
299 313 338 337 338 341 357 327 66 322 297 244 252 248 210 174 206 193 165 179 177 212 207 204 219 235 255 259 258 272 275 271 276 291 183 256 259 262 251 257 259 264 267 270 240
293 302 323 332 334 17 328 348 304 359 255 233 222 210 211 167 228 202 169 192 192 211 213 227 207 216 228 241 261 240 245 262 266 280 217 272 260 249 241 250 262 262 258 254 223
286 292 307 329 335 334 17 326 311 79 267 222 195 201 145 180 262 30 202 196 228 222 216 253 239 245 249 256 230 268 240 261 270 268 242 91 289 222 237 266 239 251 265 249 223
279 283 282 315 304 319 298 323 311 251 278 350 118 17 17 206 105 41 353 37 243 205 184 219 175 198 234 236 187 263 65 303 290 270 315 218 275 232 190 243 236 242 254 266 239
274 271 263 287 236 263 304 314 325 242 246 206 128 177 166 189 137 123 203 269 28 289 246 257 123 222 219 78 105 121 316 246 249 229 256 203 219 195 187 212 215 227 248 244 172
267 262 241 222 273 237 357 213 250 229 193 179 204 178 217 180 191 190 173 187 191 174 220 229 235 145 144 152 174 171 149 294 300 247 264 181 240 252 217 182 197 217 236 221 162
292 266 246 228 229 250 85 285 230 215 217 95 181 172 208 180 221 190 219 236 221 234 301 256 273 176 180 213 176 179 177 174 228 260 279 155 253 255 221 228 218 212 232 154 163
289 274 234 225 212 171 114 187 243 262 269 287 292 256 214 214 229 173 214 237 211 187 199 196 249 39 153 192 161 180 196 211 269 67 316 266 276 281 233 247 241 217 157 168 174
240 220 221 229 199 140 139 224 247 254 313 278 264 271 270 233 195 187 206 200 226 192 215 248 260 175 146 58 270 189 308 115 233 237 243 278 288 273 272 263 231 154 218 219 201
292 237 220 190 161 186 198 226 252 254 235 258 269 281 284 284 278 249 238 243 246 224 196 235 226 248 127 201 180 164 237 228 270 189 210 266 274 258 145 153 165 207 208 218 199
203 255 162 158 179 198 224 211 228 257 249 265 202 254 261 288 301 285 283 283 355 163 170 203 168 250 245 232 230 237 215 205 222 240 235 236 261 182 261 133 139 162 193 221 210
244 237 185 174 231 217 278 240 243 264 250 231 234 213 234 252 265 271 284 295 337 43 41 352 280 267 277 294 266 224 230 246 254 254 249 245 253 246 270 269 257 265 284 222 226
290 250 199 232 238 233 229 240 242 242 256 253 258 243 247 251 243 248 245 261 255 187 142 93 269 267 250 253 289 283 253 241 239 254 259 257 271 279 273 275 283 279 277 242 225
233 239 177 201 251 244 235 198 235 244 234 242 225 228 233 248 253 247 246 258 262 268 248 173 216 221 236 245 262 263 261 274 275 261 253 270 269 267 271 277 269 272 277 274 278
277 310 4 296 280 251 241 252 255 260 251 245 236 243 236 235 237 252 224 236 241 299 204 186 227 215 233 239 250 260 265 259 251 254 254 255 260 263 259 267 270 274 271 283 267
262 57 86 262 265 276 254 268 270 276 270 280 282 276 268 257 247 244 251 260 262 233 212 191 201 207 248 234 240 248 243 250 256 250 244 251 250 256 264 257 259 266 286 278 271